Weather History for LPAZ - August, 2012

Change the Weather History Date:

Monday, August 20, 2012

  Actual Average Record
Temperature  
Mean Temperature 72 °F -  
Max Temperature 76 °F 76 °F - ()
Min Temperature 68 °F 66 °F - ()
Cooling Degree Days 7    
Growing Degree Days 22 (Base 50)    
Moisture  
Dew Point 68 °F    
Average Humidity 87    
Maximum Humidity 100    
Minimum Humidity 62    
Precipitation  
Precipitation 0.00 in 0.07 in - ()
Sea Level Pressure  
Sea Level Pressure 29.84 in    
Wind  
Wind Speed 23 mph ()    
Max Wind Speed 49 mph    
Max Gust Speed 52 mph    
Visibility 8.9 miles    
Events Rain    
T = Trace of Precipitation, MM = Missing Value Source: Averaged Metar Reports

Daily Weather History Graph

Daily Weather History Graph

Search for Another Location

Airport or City:

Trip Planner

Search our weather history database for the weather conditions in past years. The results will help you decide how hot, cold, wet, or windy it might be!

Date:

Astronomy

Aug. 20, 2012 Rise Set
Actual Time 7:01 AM AZOST 8:25 PM AZOST
Civil Twilight 6:34 AM AZOST 8:52 PM AZOST
Nautical Twilight 6:02 AM AZOST 9:25 PM AZOST
Astronomical Twilight 5:27 AM AZOST 9:59 PM AZOST
Moon 10:05 AM AZOST (8/20) 9:49 PM AZOST (8/20)
Length of Visible Light 14h 17m
Length of Day
13h 23m
Waxing Crescent, 10% of the Moon is Illuminated
Aug 20
Waxing Crescent
Aug 24
First Quarter
Aug 31
Full
Sep 8
Last Quarter
Sep 16
New

Hourly Weather History & Observations

Time (AZOST) Temp. Dew Point Humidity Pressure Visibility Wind Dir Wind Speed Gust Speed Precip Events Conditions
12:00 AM 71 °F 65 °F 77% 29.83 in 16 mi SE 35.8 mph - - Rain Heavy Rain Showers
12:00 AM 71.6 °F 68.0 °F 88% 29.83 in - North - - N/A   Mostly Cloudy
12:30 AM 69.8 °F 68.0 °F 94% 29.83 in - North - - N/A Rain Rain
1:00 AM 69.8 °F 68.0 °F 94% 29.77 in - North - - N/A Rain Rain
1:30 AM 69.8 °F 68.0 °F 94% 29.74 in - North - - N/A Rain Light Rain
2:00 AM 69.8 °F 68.0 °F 94% 29.68 in - North - - N/A Rain Heavy Rain
2:30 AM 69.8 °F 68.0 °F 94% 29.62 in - North - - N/A Rain Rain
3:00 AM 71 °F 70 °F 97% 29.50 in 2 mi SE 49.2 mph - - Rain Heavy Rain
3:00 AM 69.8 °F 68.0 °F 94% 29.50 in - North - - N/A Rain Rain
3:30 AM 71.6 °F 69.8 °F 94% 29.47 in - North - - N/A Rain Light Rain
4:00 AM 69.8 °F 68.0 °F 94% 29.39 in - North - - N/A Rain Light Rain
4:30 AM 69.8 °F 68.0 °F 94% 29.33 in - North - - N/A Rain Light Rain
5:00 AM 71.6 °F 69.8 °F 94% 29.30 in 1.2 mi South 23.0 mph - N/A   Mostly Cloudy
5:30 AM 71.6 °F 69.8 °F 94% 29.33 in - North - - N/A   Mostly Cloudy
6:00 AM 71 °F 71 °F 100% 29.37 in - WNW 22.4 mph - -   Partly Cloudy
6:00 AM 71.6 °F 69.8 °F 94% 29.36 in - North - - N/A   Mostly Cloudy
6:30 AM 69.8 °F 68.0 °F 94% 29.42 in - North - - N/A   Mostly Cloudy
7:00 AM 69.8 °F 68.0 °F 94% 29.50 in - North - - N/A   Mostly Cloudy
7:30 AM 68.0 °F 66.2 °F 94% 29.59 in 1.2 mi NNW 40.3 mph 51.8 mph N/A   Mostly Cloudy
8:00 AM 69.8 °F 68.0 °F 94% 29.71 in - North - - N/A   Mostly Cloudy
8:30 AM 69.8 °F 68.0 °F 94% 29.77 in - North - - N/A   Mostly Cloudy
9:00 AM 70 °F 67 °F 87% 29.78 in 5 mi NNW 24.6 mph - -   Mist
9:00 AM 71.6 °F 68.0 °F 88% 29.83 in - North - - N/A   Mostly Cloudy
9:30 AM 71.6 °F 68.0 °F 88% 29.86 in - North - - N/A   Mostly Cloudy
10:00 AM 69.8 °F 68.0 °F 94% 29.86 in - North - - N/A   Mostly Cloudy
10:30 AM 71.6 °F 69.8 °F 94% 29.89 in - North - - N/A   Mostly Cloudy
11:00 AM 71.6 °F 69.8 °F 94% 29.92 in - North - - N/A   Mostly Cloudy
11:30 AM 73.4 °F 71.6 °F 94% 29.95 in - North - - N/A   Scattered Clouds
12:00 PM 73 °F 68 °F 78% 30.01 in 7 mi NNW 17.9 mph - -   Mostly Cloudy
12:00 PM 71.6 °F 69.8 °F 94% 29.95 in - North - - N/A   Mostly Cloudy
12:30 PM 73.4 °F 69.8 °F 88% 29.95 in - North - - N/A   Scattered Clouds
1:00 PM 73.4 °F 69.8 °F 88% 29.98 in - North - - N/A   Partly Cloudy
1:30 PM 73.4 °F 68.0 °F 83% 29.98 in - North - - N/A   Scattered Clouds
2:00 PM 73.4 °F 68.0 °F 83% 29.98 in - North - - N/A   Partly Cloudy
2:30 PM 75.2 °F 68.0 °F 78% 29.98 in - North - - N/A   Scattered Clouds
3:00 PM 76 °F 65 °F 62% 30.03 in 16 mi North 13.4 mph - -   Partly Cloudy
3:00 PM 75.2 °F 66.2 °F 73% 30.01 in - North - - N/A   Scattered Clouds
3:30 PM 75.2 °F 66.2 °F 73% 30.01 in - North - - N/A   Scattered Clouds
4:00 PM 75.2 °F 66.2 °F 73% 30.01 in - North - - N/A   Partly Cloudy
4:30 PM 75.2 °F 66.2 °F 73% 30.01 in - North - - N/A   Partly Cloudy
5:00 PM 75.2 °F 66.2 °F 73% 30.04 in - North - - N/A   Partly Cloudy
5:30 PM 73.4 °F 66.2 °F 78% 30.04 in - North - - N/A   Partly Cloudy
6:00 PM 74 °F 64 °F 63% 30.07 in 16 mi North 6.7 mph - -   Scattered Clouds
6:00 PM 73.4 °F 66.2 °F 78% 30.04 in - North - - N/A   Partly Cloudy
6:30 PM 75.2 °F 66.2 °F 73% 30.06 in - North - - N/A   Partly Cloudy
7:00 PM 75.2 °F 66.2 °F 73% 30.06 in - North - - N/A   Partly Cloudy
7:30 PM 73.4 °F 66.2 °F 78% 30.06 in - North - - N/A   Partly Cloudy
8:00 PM 71.6 °F 66.2 °F 83% 30.06 in - North - - N/A   Scattered Clouds
8:30 PM 69.8 °F 66.2 °F 88% 30.09 in - North - - N/A   Partly Cloudy
9:00 PM 69 °F 63 °F 77% 30.13 in 16 mi ENE 8.9 mph - -   Scattered Clouds
9:00 PM 69.8 °F 66.2 °F 88% 30.09 in - North - - N/A   Partly Cloudy
9:30 PM 68.0 °F 66.2 °F 94% 30.12 in - North - - N/A   Partly Cloudy
10:00 PM 68.0 °F 66.2 °F 94% 30.12 in - North - - N/A   Partly Cloudy
10:30 PM 68.0 °F 66.2 °F 94% 30.12 in - North - - N/A   Partly Cloudy
11:00 PM 68.0 °F 66.2 °F 94% 30.15 in - North - - N/A   Partly Cloudy
11:30 PM 68.0 °F 66.2 °F 94% 30.15 in - North - - N/A   Partly Cloudy